�N����,����,�g�[���i���ԁj���x,�g�[�����x,��g�[���i���ցj���x,����
 2003/04/01, 0:00,17.7,70,13.4,-9.9
 2003/04/01, 0:15,17.7,70,13.4,-9.9
 2003/04/01, 0:30,17.6,68,13.3,-9.9
 2003/04/01, 0:45,17.2,68,13.2,-9.9
 2003/04/01, 1:00,17,68,13.2,-9.9
 2003/04/01, 1:15,16.9,68,13.1,-9.9
 2003/04/01, 1:30,16.7,68,13.1,-9.9
 2003/04/01, 1:45,16.5,68,13,-9.9
 2003/04/01, 2:00,16.4,68,13,-9.9
 2003/04/01, 2:15,16.2,68,13,-9.9
 2003/04/01, 2:30,16.2,68,13,-9.9
 2003/04/01, 2:45,16,68,12.9,-9.9
 2003/04/01, 3:00,15.9,68,12.9,-9.9
 2003/04/01, 3:15,15.9,68,12.9,-9.9
 2003/04/01, 3:30,15.7,68,12.9,-9.9
 2003/04/01, 3:45,15.7,68,12.8,-9.9
 2003/04/01, 4:00,15.7,68,12.8,-9.9
 2003/04/01, 4:15,15.6,68,12.8,-9.9
 2003/04/01, 4:30,15.5,68,12.8,-9.9
 2003/04/01, 4:45,15.4,68,12.7,-9.9
 2003/04/01, 5:00,15.4,68,12.7,-9.9
 2003/04/01, 5:15,15.4,68,12.7,-9.9
 2003/04/01, 5:30,15.3,68,12.7,-9.9
 2003/04/01, 5:45,15.2,67.5,12.6,-9.9
 2003/04/01, 6:00,15.2,68,12.6,-9.9
 2003/04/01, 6:15,15.1,68,12.6,-9.9
 2003/04/01, 6:30,15.2,67,12.6,-9.9
 2003/04/01, 6:45,15.1,68,12.6,-9.9
 2003/04/01, 7:00,15.2,68,12.6,-9.9
 2003/04/01, 7:15,15.1,66.5,12.9,-9.9
 2003/04/01, 7:30,14.9,66,13.1,-9.9
 2003/04/01, 7:45,15.1,69,13.1,-9.9
 2003/04/01, 8:00,15,68,13,-9.9
 2003/04/01, 8:15,15.4,70.5,13.1,-9.9
 2003/04/01, 8:30,16.1,67,13.2,-9.9
 2003/04/01, 8:45,16.4,64.5,13.6,-9.9
 2003/04/01, 9:00,16.9,63,13.5,-9.9
 2003/04/01, 9:15,17.1,62.5,13.4,-9.9
 2003/04/01, 9:30,17.7,64,13.4,-9.9
 2003/04/01, 9:45,17.9,65,13.4,-9.9
 2003/04/01,10:00,18.1,64,13.7,-9.9
 2003/04/01,10:15,18.6,62,14.4,-9.9
 2003/04/01,10:30,19.1,62,14,-9.9
 2003/04/01,10:45,18.7,60.5,14.2,-9.9
 2003/04/01,11:00,18.5,59,14.6,-9.9
 2003/04/01,11:15,19,62,14.6,-9.9
 2003/04/01,11:30,19.5,62,14.5,-9.9
 2003/04/01,11:45,19.5,60.5,14.6,-9.9
 2003/04/01,12:00,19.6,59,14.7,-9.9
 2003/04/01,12:15,19.7,58,14.8,-9.9
 2003/04/01,12:30,19.5,57,15.2,-9.9
 2003/04/01,12:45,19.5,55,15.2,-9.9
 2003/04/01,13:00,19.7,56,15,-9.9
 2003/04/01,13:15,20,56,15,-9.9
 2003/04/01,13:30,20.1,56,15,-9.9
 2003/04/01,13:45,20.1,56,15,-9.9
 2003/04/01,14:00,20.1,56,15,-9.9
 2003/04/01,14:15,20.1,56.5,15,-9.9
 2003/04/01,14:30,20.3,56,15,-9.9
 2003/04/01,14:45,20.4,56,15,-9.9
 2003/04/01,15:00,20.4,56,15.2,-9.9
 2003/04/01,15:15,20.6,55.5,15.1,-9.9
 2003/04/01,15:30,20.8,56,15.2,-9.9
 2003/04/01,15:45,20.8,54.5,15.4,-9.9
 2003/04/01,16:00,20.8,55,15.6,-9.9
 2003/04/01,16:15,20.6,53,16,-9.9
 2003/04/01,16:30,20.9,53,15.8,-9.9
 2003/04/01,16:45,21.1,54,15.7,-9.9
 2003/04/01,17:00,21.1,54,15.8,-9.9
 2003/04/01,17:15,21.1,54.5,15.8,-9.9
 2003/04/01,17:30,21.1,53,15.9,-9.9
 2003/04/01,17:45,20.5,56.5,15.9,-9.9
 2003/04/01,18:00,20.7,60,15.6,-9.9
 2003/04/01,18:15,20.5,60,15.6,-9.9
 2003/04/01,18:30,20.1,60,15.6,-9.9
 2003/04/01,18:45,19.6,56,15.4,-9.9
 2003/04/01,19:00,19.7,54,15.2,-9.9
 2003/04/01,19:15,19.5,54,15.2,-9.9
 2003/04/01,19:30,19.4,54,15.5,-9.9
 2003/04/01,19:45,19.8,58.5,15.1,-9.9
 2003/04/01,20:00,19.8,60,15.2,-9.9
 2003/04/01,20:15,19.8,60.5,15.1,-9.9
 2003/04/01,20:30,19.8,61,15,-9.9
 2003/04/01,20:45,19.8,61,15.1,-9.9
 2003/04/01,21:00,19.9,61,15,-9.9
 2003/04/01,21:15,19.9,64.5,14.9,-9.9
 2003/04/01,21:30,19.9,64,14.9,-9.9
 2003/04/01,21:45,20,63.5,14.9,-9.9
 2003/04/01,22:00,20,63,14.8,-9.9
 2003/04/01,22:15,20.1,63,14.9,-9.9
 2003/04/01,22:30,20.1,63,14.7,-9.9
 2003/04/01,22:45,20.1,63,14.7,-9.9
 2003/04/01,23:00,19.8,63,14.6,-9.9
 2003/04/01,23:15,19.5,64,14.6,-9.9
 2003/04/01,23:30,19.2,65,14.5,-9.9
 2003/04/01,23:45,19.3,65,14.6,-9.9
 2003/04/02, 0:00,19.3,66,14.6,-9.9
 2003/04/02, 0:15,19,66,14.5,-9.9
 2003/04/02, 0:30,18.8,65,14.4,12.2
 2003/04/02, 0:45,18.5,65,14.4,12.2
 2003/04/02, 1:00,18.3,65,14.3,12.3
 2003/04/02, 1:15,18,65.5,14.2,12.3
 2003/04/02, 1:30,17.8,66,14.2,12.3
 2003/04/02, 1:45,17.5,62.5,14.5,12.4
 2003/04/02, 2:00,17.4,64,14.3,12.2
 2003/04/02, 2:15,17.3,64,14.1,12.2
 2003/04/02, 2:30,17.2,64,14,12.3
 2003/04/02, 2:45,17,64.5,14.1,12.3
 2003/04/02, 3:00,17,65,14,12.4
 2003/04/02, 3:15,16.9,65,13.8,12.4
 2003/04/02, 3:30,16.8,65,13.8,12.4
 2003/04/02, 3:45,16.7,65,13.8,12.5
 2003/04/02, 4:00,16.6,65,13.8,12.5
 2003/04/02, 4:15,16.5,65.5,13.6,12.5
 2003/04/02, 4:30,16.4,66,13.7,12.6
 2003/04/02, 4:45,16.4,66,13.6,12.6
 2003/04/02, 5:00,16.3,66,13.5,12.6
 2003/04/02, 5:15,16.2,66,13.4,12.6
 2003/04/02, 5:30,16.1,66,13.5,12.7
 2003/04/02, 5:45,15.9,65,13.6,12.4
 2003/04/02, 6:00,15.7,66,13.8,12.3
 2003/04/02, 6:15,15.6,66,13.8,12.3
 2003/04/02, 6:30,15.6,66,13.8,12.4
 2003/04/02, 6:45,22.2,46,13.6,12.4
 2003/04/02, 7:00,24.1,43,13.5,12.4
 2003/04/02, 7:15,22.4,45.5,13.4,11.9
 2003/04/02, 7:30,19,58,13.2,11.9
 2003/04/02, 7:45,18.2,62,13.4,12.1
 2003/04/02, 8:00,17.6,63,13.4,11.9
 2003/04/02, 8:15,17.3,64.5,13.4,11.9
 2003/04/02, 8:30,17.1,65,13.5,11.9
 2003/04/02, 8:45,16.9,66,13.3,12
 2003/04/02, 9:00,16.8,66,13.4,12
 2003/04/02, 9:15,16.8,68,13.5,12.1
 2003/04/02, 9:30,16.8,68,13.6,12.1
 2003/04/02, 9:45,16.9,72,13.5,12.1
 2003/04/02,10:00,16.9,77,13.5,12
 2003/04/02,10:15,16.8,74,13.4,11.9
 2003/04/02,10:30,16.7,73,13.5,11.9
 2003/04/02,10:45,16.8,73,13.4,11.9
 2003/04/02,11:00,16.8,73,13.4,11.7
 2003/04/02,11:15,16.9,72,13.4,11.9
 2003/04/02,11:30,17,70,13.5,12.1
 2003/04/02,11:45,17.6,68,13.6,12.1
 2003/04/02,12:00,18.1,65,13.5,12.1
 2003/04/02,12:15,18.4,63.5,13.5,12.2
 2003/04/02,12:30,18.4,61,13.9,12.2
 2003/04/02,12:45,18.5,60,14.1,12.3
 2003/04/02,13:00,18.9,60,14,12.3
 2003/04/02,13:15,19.1,59,14.1,12.3
 2003/04/02,13:30,19.3,59,14.2,12.3
 2003/04/02,13:45,19.4,60,14.1,12.3
 2003/04/02,14:00,19.5,59,14.3,12.2
 2003/04/02,14:15,19.6,59,14.2,12.2
 2003/04/02,14:30,19.7,59,14.3,12.2
 2003/04/02,14:45,19.7,59,14.2,12.2
 2003/04/02,15:00,19.4,58,14.4,12.2
 2003/04/02,15:15,19.6,58,14.1,12.2
 2003/04/02,15:30,19.7,58,14.1,12.3
 2003/04/02,15:45,19.2,59.5,13.9,12.3
 2003/04/02,16:00,19.2,59,13.9,12.3
 2003/04/02,16:15,19.1,60,13.9,12.3
 2003/04/02,16:30,19.1,60,13.9,12.4
 2003/04/02,16:45,19.3,59.5,13.9,12.4
 2003/04/02,17:00,19.4,59,13.8,12.4
 2003/04/02,17:15,19.6,59,13.8,12.4
 2003/04/02,17:30,19.7,58,13.9,12.5
 2003/04/02,17:45,19.8,57.5,13.9,12.5
 2003/04/02,18:00,19.5,56,14.1,12.5
 2003/04/02,18:15,19.9,55.5,13.9,12.3
 2003/04/02,18:30,20,55,13.9,12
 2003/04/02,18:45,20.1,58.5,13.8,12
 2003/04/02,19:00,20.2,59,13.8,12
 2003/04/02,19:15,19.6,57,13.6,12
 2003/04/02,19:30,20.4,57,13.7,12.1
 2003/04/02,19:45,20.4,57,13.6,12.1
 2003/04/02,20:00,20.5,58,13.7,12.1
 2003/04/02,20:15,20.4,58.5,13.6,12.2
 2003/04/02,20:30,20.4,59,13.7,12.2
 2003/04/02,20:45,20.5,58,13.6,12.2
 2003/04/02,21:00,20.5,58,13.6,12.3
 2003/04/02,21:15,20.4,58,13.8,12.3
 2003/04/02,21:30,20.4,59,13.7,12.3
 2003/04/02,21:45,20.5,58.5,13.8,12.3
 2003/04/02,22:00,20.5,58,13.7,12.1
 2003/04/02,22:15,19.9,60.5,13.7,12.2
 2003/04/02,22:30,19.2,63,13.7,12.2
 2003/04/02,22:45,18.5,58,13.7,12.2
 2003/04/02,23:00,18.2,62,13.7,12.3
 2003/04/02,23:15,18.4,63,13.6,12.3
 2003/04/02,23:30,18.4,64,13.6,12.3
 2003/04/02,23:45,18.3,64.5,13.6,12.3
 2003/04/03, 0:00,18.1,65,13.6,12.3
 2003/04/03, 0:15,22.9,51,13.5,12.3
 2003/04/03, 0:30,25.3,44,13.5,12.3
 2003/04/03, 0:45,24,49,13.4,12.2
 2003/04/03, 1:00,20.4,58,13.5,12.1
 2003/04/03, 1:15,19.4,60.5,13.4,12.3
 2003/04/03, 1:30,18.7,62,13.4,12.3
 2003/04/03, 1:45,18.2,63,13.3,12.3
 2003/04/03, 2:00,17.9,64,13.3,12.3
 2003/04/03, 2:15,17.6,64.5,13.2,12.4
 2003/04/03, 2:30,17.4,65,13.2,12.4
 2003/04/03, 2:45,17.1,65,13.1,12.4
 2003/04/03, 3:00,16.9,66,13.1,12.4
 2003/04/03, 3:15,16.8,66,13.1,12.4
 2003/04/03, 3:30,16.6,66,13,12.4
 2003/04/03, 3:45,16.5,66,12.9,12.4
 2003/04/03, 4:00,16.3,66,12.9,12.4
 2003/04/03, 4:15,16.1,67,12.9,12.4
 2003/04/03, 4:30,16,67,12.8,12.5
 2003/04/03, 4:45,15.9,67,12.7,12.5
 2003/04/03, 5:00,15.7,67,12.7,12.5
 2003/04/03, 5:15,15.6,67,12.6,12.5
 2003/04/03, 5:30,15.4,67,12.6,12.5
 2003/04/03, 5:45,15.4,67,12.5,12.5
 2003/04/03, 6:00,15.3,67,12.5,12.5
 2003/04/03, 6:15,15.2,67,12.4,12.5
 2003/04/03, 6:30,15.1,67,12.4,12.5
 2003/04/03, 6:45,15.1,67.5,12.4,12.5
 2003/04/03, 7:00,15,68,12.5,12.5
 2003/04/03, 7:15,15,68,12.6,11.9
 2003/04/03, 7:30,15,67,12.7,12
 2003/04/03, 7:45,15.4,68.5,12.9,11.9
 2003/04/03, 8:00,15.6,67,13.3,11.8
 2003/04/03, 8:15,15.8,69.5,13.8,11.9
 2003/04/03, 8:30,15.8,63,14.1,12
 2003/04/03, 8:45,15.9,62.5,14.1,12
 2003/04/03, 9:00,16,63,14.3,12
 2003/04/03, 9:15,16.3,62.5,14.4,12
 2003/04/03, 9:30,17.2,63,14.4,12.1
 2003/04/03, 9:45,17.5,63,14.6,12.1
 2003/04/03,10:00,17.6,61,14.8,12.1
 2003/04/03,10:15,18,59.5,15.1,12.1
 2003/04/03,10:30,18.3,62,15.1,12.2
 2003/04/03,10:45,18.6,63.5,14.9,12.2
 2003/04/03,11:00,18.8,59,14.9,12.2
 2003/04/03,11:15,18.9,53,14.9,12.2
 2003/04/03,11:30,19.8,54,14.9,12.3
 2003/04/03,11:45,19.8,52.5,14.9,12.3
 2003/04/03,12:00,19,51,15.5,12.3
 2003/04/03,12:15,19.4,52,15.3,12.3
 2003/04/03,12:30,19.9,52,15.1,12.3
 2003/04/03,12:45,20.2,52,15.1,12.3
 2003/04/03,13:00,20.4,52,15.2,12.4
 2003/04/03,13:15,20.6,51.5,15.2,12.3
 2003/04/03,13:30,20.9,51,15.2,12.4
 2003/04/03,13:45,21.1,51,15.1,12.4
 2003/04/03,14:00,21.2,52,15.3,12.4
 2003/04/03,14:15,21.4,51.5,15.4,12.4
 2003/04/03,14:30,21.3,52,15.4,12.5
 2003/04/03,14:45,21.5,51,15.5,12.5
 2003/04/03,15:00,21.6,50,15.5,12.5
 2003/04/03,15:15,21.7,50,15.5,12.6
 2003/04/03,15:30,21.9,51,15.6,12.6
 2003/04/03,15:45,21.9,50.5,15.8,12.6
 2003/04/03,16:00,21.1,47,16.5,12.7
 2003/04/03,16:15,21.2,48.5,16.9,12.7
 2003/04/03,16:30,21,50,17,12.7
 2003/04/03,16:45,21,50,17,12.8
 2003/04/03,17:00,20.8,51,17,12.8
 2003/04/03,17:15,20.8,51.5,17,12.8
 2003/04/03,17:30,20.6,52,17,12.8
 2003/04/03,17:45,20,54.5,16.2,12.5
 2003/04/03,18:00,19.8,56,15.9,12.5
 2003/04/03,18:15,19.5,56.5,15.9,12.5
 2003/04/03,18:30,19.4,58,15.7,12.5
 2003/04/03,18:45,19.5,58,15.6,12.5
 2003/04/03,19:00,19.7,53,15.4,12.5
 2003/04/03,19:15,19.9,50.5,15.2,12.6
 2003/04/03,19:30,20,49,15,12.6
 2003/04/03,19:45,20.4,48.5,14.9,12.6
 2003/04/03,20:00,20.7,49,14.9,12.7
 2003/04/03,20:15,20.8,50,14.8,12.7
 2003/04/03,20:30,20.8,51,14.8,12.7
 2003/04/03,20:45,20.9,51.5,14.6,12.8
 2003/04/03,21:00,20.9,53,14.5,12.3
 2003/04/03,21:15,20.9,53.5,14.4,12.3
 2003/04/03,21:30,20.8,53,14.3,12.3
 2003/04/03,21:45,20.5,54.5,14.2,12.2
 2003/04/03,22:00,19.9,57,14.2,12.2
 2003/04/03,22:15,19.5,58.5,14.1,12.2
 2003/04/03,22:30,19.2,59,14,12.2
 2003/04/03,22:45,18.9,60,14,12.2
 2003/04/03,23:00,18.7,58,14.1,12.2
 2003/04/03,23:15,18.5,60,14,12.1
 2003/04/03,23:30,18.4,60,13.9,12.2
 2003/04/03,23:45,18.1,59.5,13.9,12.2
 2003/04/04, 0:00,17.9,59,13.9,12.2
 2003/04/04, 0:15,18.1,62.5,13.8,12.2
 2003/04/04, 0:30,18,63,13.7,12.2
 2003/04/04, 0:45,17.8,63,13.7,12.2
 2003/04/04, 1:00,17.7,63,13.6,12.3
 2003/04/04, 1:15,17.7,63,13.6,12.3
 2003/04/04, 1:30,17.5,63,13.5,12.2
 2003/04/04, 1:45,17.2,63,13.3,12.2
 2003/04/04, 2:00,17,63,13.2,12.3
 2003/04/04, 2:15,16.8,64,13.2,12.3
 2003/04/04, 2:30,16.7,64,13.2,11.8
 2003/04/04, 2:45,16.5,64,13.1,12.2
 2003/04/04, 3:00,16.4,64,13,12.2
 2003/04/04, 3:15,16.3,64,13,12.2
 2003/04/04, 3:30,16.2,64,12.9,12.3
 2003/04/04, 3:45,16,64,12.9,12.3
 2003/04/04, 4:00,16,64,12.9,12.3
 2003/04/04, 4:15,15.9,64.5,12.9,12.3
 2003/04/04, 4:30,15.8,64,12.9,12.3
 2003/04/04, 4:45,15.8,65,12.8,12.3
 2003/04/04, 5:00,15.6,64,12.8,12.4
 2003/04/04, 5:15,15.6,65,12.8,12.4
 2003/04/04, 5:30,15.4,65,12.8,12.5
 2003/04/04, 5:45,15.4,65,12.8,12.2
 2003/04/04, 6:00,15.4,65,12.7,12.3
 2003/04/04, 6:15,15.4,65,12.8,12.3
 2003/04/04, 6:30,15.4,67,12.7,12.3
 2003/04/04, 6:45,15.4,66,12.9,12.1
 2003/04/04, 7:00,15.4,67,13.1,11.9
 2003/04/04, 7:15,16.7,75,13.3,12
 2003/04/04, 7:30,16.2,71,13.5,12
 2003/04/04, 7:45,15.9,69.5,13.6,12.1
 2003/04/04, 8:00,15.7,70,13.6,12.2
 2003/04/04, 8:15,15.6,68.5,13.6,12.1
 2003/04/04, 8:30,15.4,68,13.6,12.2
 2003/04/04, 8:45,15.2,67,13.6,11.9
 2003/04/04, 9:00,15.1,66,13.6,12.1
 2003/04/04, 9:15,14.9,66,13.6,12.1
 2003/04/04, 9:30,14.9,65,13.6,12.2
 2003/04/04, 9:45,14.9,64.5,13.6,12.2
 2003/04/04,10:00,14.5,61,13.5,12.2
 2003/04/04,10:15,14.6,61.5,13.6,12.2
 2003/04/04,10:30,14.9,62,13.7,12.2
 2003/04/04,10:45,14.9,62.5,13.8,12.2
 2003/04/04,11:00,14.7,63,13.6,12.3
 2003/04/04,11:15,14.8,61.5,13.6,12.3
 2003/04/04,11:30,14.8,62,13.6,12.3
 2003/04/04,11:45,14.8,63,13.6,12.3
 2003/04/04,12:00,15.2,67,13.6,12.3
 2003/04/04,12:15,15.2,64,13.7,12.4
 2003/04/04,12:30,15.2,63,13.7,12.4
 2003/04/04,12:45,15.4,65,13.8,12.4
 2003/04/04,13:00,15.2,65,13.8,12.4
 2003/04/04,13:15,15.2,64.5,13.8,12.4
 2003/04/04,13:30,15.2,64,13.8,12.5
 2003/04/04,13:45,15.2,64,13.9,12.5
 2003/04/04,14:00,15.2,64,13.9,12.3
 2003/04/04,14:15,15.2,65,13.9,12.4
 2003/04/04,14:30,15.1,64,13.8,12.4
 2003/04/04,14:45,15,64.5,13.8,12.4
 2003/04/04,15:00,14.8,65,13.7,12.4
 2003/04/04,15:15,14.8,65,13.6,12.4
 2003/04/04,15:30,14.7,65,13.5,12.5
 2003/04/04,15:45,14.6,65.5,13.4,12.5
 2003/04/04,16:00,14.5,66,13.3,12.5
 2003/04/04,16:15,14.4,66,13.3,12.5
 2003/04/04,16:30,14.4,66,13.2,12.5
 2003/04/04,16:45,14.3,66,13.1,12.5
 2003/04/04,17:00,14.3,66,13.1,12.6
 2003/04/04,17:15,14.1,66.5,13.1,12.6
 2003/04/04,17:30,14.1,67,12.9,12.6
 2003/04/04,17:45,14.1,67,12.9,12.6
 2003/04/04,18:00,13.9,67,12.8,12.6
 2003/04/04,18:15,13.9,67,12.8,12.6
 2003/04/04,18:30,13.9,67,12.7,12.6
 2003/04/04,18:45,13.8,67.5,12.6,12.6
 2003/04/04,19:00,13.7,68,12.6,12.7
 2003/04/04,19:15,13.7,67,12.6,12.7
 2003/04/04,19:30,13.7,68,12.6,12.7
 2003/04/04,19:45,13.6,68,12.5,12.7
 2003/04/04,20:00,13.5,68,12.4,12.7
 2003/04/04,20:15,13.4,68,12.4,12.7
 2003/04/04,20:30,13.5,68,12.4,12.7
 2003/04/04,20:45,13.4,68,12.4,12.7
 2003/04/04,21:00,13.4,68,12.2,12.7
 2003/04/04,21:15,13.3,68,12.2,12.7
 2003/04/04,21:30,13.2,68,12.2,12.7
 2003/04/04,21:45,13.2,68,12.1,12.7
 2003/04/04,22:00,13.2,69,12,12.7
 2003/04/04,22:15,13.1,69,12,12.7
 2003/04/04,22:30,13.1,69,11.9,12.7
 2003/04/04,22:45,13,68.5,11.8,12.7
 2003/04/04,23:00,13,69,11.8,12.7
 2003/04/04,23:15,12.9,69,11.8,12.7
 2003/04/04,23:30,12.8,69,11.8,12.7
 2003/04/04,23:45,12.9,69,11.8,12.7
 2003/04/05, 0:00,12.7,69,11.7,12.7
 2003/04/05, 0:15,12.7,69,11.6,12.7
 2003/04/05, 0:30,12.8,69,11.6,12.7
 2003/04/05, 0:45,12.6,69,11.6,12.7
 2003/04/05, 1:00,12.6,69,11.6,12.7
 2003/04/05, 1:15,12.6,69,11.5,12.7
 2003/04/05, 1:30,12.6,69,11.5,12.7
 2003/04/05, 1:45,12.5,69,11.4,12.7
 2003/04/05, 2:00,12.5,69,11.5,12.7
 2003/04/05, 2:15,12.4,69,11.5,12.6
 2003/04/05, 2:30,12.4,69,11.4,12.6
 2003/04/05, 2:45,12.4,69,11.4,12.6
 2003/04/05, 3:00,12.4,69,11.3,12.6
 2003/04/05, 3:15,12.3,69,11.4,12.6
 2003/04/05, 3:30,12.2,70,11.3,12.6
 2003/04/05, 3:45,12.2,69.5,11.2,12.6
 2003/04/05, 4:00,12.3,69,11.2,12.6
 2003/04/05, 4:15,12.2,70,11.1,12.6
 2003/04/05, 4:30,12.2,69,11.2,12.6
 2003/04/05, 4:45,12.1,70,11.1,12.6
 2003/04/05, 5:00,12.1,69,11.1,12.5
 2003/04/05, 5:15,12.1,69.5,11.1,12.5
 2003/04/05, 5:30,12.1,69,11,12.5
 2003/04/05, 5:45,11.9,70,11,12.5
 2003/04/05, 6:00,12,70,11,12.5
 2003/04/05, 6:15,11.9,69.5,10.9,12.5
 2003/04/05, 6:30,11.9,70,10.9,12.5
 2003/04/05, 6:45,11.9,70,10.9,12.4
 2003/04/05, 7:00,11.9,70,10.9,12.4
 2003/04/05, 7:15,11.8,70,10.9,12.4
 2003/04/05, 7:30,11.8,70,10.9,12.4
 2003/04/05, 7:45,11.8,70,10.9,12.4
 2003/04/05, 8:00,11.7,70,10.9,12.4
 2003/04/05, 8:15,11.7,70,10.9,12.4
 2003/04/05, 8:30,11.6,70,10.8,12.3
 2003/04/05, 8:45,11.6,69.5,10.9,12.3
 2003/04/05, 9:00,11.6,70,10.9,12.3
 2003/04/05, 9:15,11.6,70,10.9,12.3
 2003/04/05, 9:30,11.7,69,11,12.3
 2003/04/05, 9:45,11.6,69,11.1,12.3
 2003/04/05,10:00,11.7,69,11.1,12.3
 2003/04/05,10:15,11.7,69,11.1,12.2
 2003/04/05,10:30,11.8,69,11.2,12.2
 2003/04/05,10:45,11.9,69,11.3,12.2
 2003/04/05,11:00,11.8,69,11.4,12.2
 2003/04/05,11:15,11.8,69.5,11.2,12.2
 2003/04/05,11:30,11.8,69,11.2,12.2
 2003/04/05,11:45,11.8,69,11.4,12.2
 2003/04/05,12:00,11.7,69,11.3,12.2
 2003/04/05,12:15,11.8,69,11.4,12.2
 2003/04/05,12:30,11.8,69,11.3,12.2
 2003/04/05,12:45,11.8,69,11.4,12.1
 2003/04/05,13:00,11.8,69,11.2,12.1
 2003/04/05,13:15,11.7,69,11.2,12.1
 2003/04/05,13:30,11.8,69,11.2,12.1
 2003/04/05,13:45,11.7,69,11.2,12.1
 2003/04/05,14:00,11.7,69,11.2,12.1
 2003/04/05,14:15,11.7,68.5,11.2,12.1
 2003/04/05,14:30,11.6,68,11.2,12.1
 2003/04/05,14:45,11.7,68,11.1,12.1
 2003/04/05,15:00,11.7,68,11.2,12.1
 2003/04/05,15:15,11.6,67.5,11.1,12.1
 2003/04/05,15:30,11.6,68,11.1,12.1
 2003/04/05,15:45,11.6,67.5,11.1,12.1
 2003/04/05,16:00,11.6,67,11,12.1
 2003/04/05,16:15,11.6,67,11,12.1
 2003/04/05,16:30,11.5,67,11,12
 2003/04/05,16:45,11.5,67,11,12
 2003/04/05,17:00,11.5,67,10.9,12
 2003/04/05,17:15,11.4,67,10.9,12
 2003/04/05,17:30,11.4,67,10.8,12
 2003/04/05,17:45,11.4,67,10.8,12
 2003/04/05,18:00,11.4,67,10.7,12
 2003/04/05,18:15,11.3,66.5,10.8,12
 2003/04/05,18:30,11.2,66,10.6,12
 2003/04/05,18:45,11.2,66,10.6,11.9
 2003/04/05,19:00,11.2,66,10.7,11.9
 2003/04/05,19:15,11.2,65.5,10.6,11.9
 2003/04/05,19:30,11.2,65,10.6,11.9
 2003/04/05,19:45,11.1,64.5,10.5,11.9
 2003/04/05,20:00,11.1,64,10.6,11.9
 2003/04/05,20:15,11.1,63.5,10.4,11.9
 2003/04/05,20:30,11,63,10.4,11.9
 2003/04/05,20:45,11,63,10.4,11.9
 2003/04/05,21:00,11,63,10.3,11.8
 2003/04/05,21:15,10.9,62.5,10.2,11.8
 2003/04/05,21:30,10.8,63,10.2,11.8
 2003/04/05,21:45,10.8,62.5,10.1,11.8
 2003/04/05,22:00,10.7,62,10.1,11.8
 2003/04/05,22:15,10.7,63,10.1,11.8
 2003/04/05,22:30,10.7,64,10,11.8
 2003/04/05,22:45,10.6,63,9.9,11.7
 2003/04/05,23:00,10.6,63,9.9,11.7
 2003/04/05,23:15,10.6,63,9.9,11.7
 2003/04/05,23:30,10.5,63,9.8,11.7
 2003/04/05,23:45,10.4,63,9.7,11.7
 2003/04/06, 0:00,10.4,63,9.7,11.7
 2003/04/06, 0:15,10.4,62.5,9.6,11.6
 2003/04/06, 0:30,10.3,63,9.6,11.6
 2003/04/06, 0:45,10.3,63,9.4,11.6
 2003/04/06, 1:00,10.2,64,9.3,11.6
 2003/04/06, 1:15,10.1,64,9.4,11.6
 2003/04/06, 1:30,10.1,64,9.3,11.5
 2003/04/06, 1:45,10.1,64,9.3,11.5
 2003/04/06, 2:00,10,64,9.2,11.5
 2003/04/06, 2:15,9.9,63.5,9.1,11.4
 2003/04/06, 2:30,9.9,64,9,11.4
 2003/04/06, 2:45,9.8,63,8.9,11.4
 2003/04/06, 3:00,9.8,63,8.9,11.4
 2003/04/06, 3:15,9.7,63,8.9,11.4
 2003/04/06, 3:30,9.6,64,8.8,11.3
 2003/04/06, 3:45,9.6,63.5,8.6,11.3
 2003/04/06, 4:00,9.5,64,8.7,11.3
 2003/04/06, 4:15,9.5,63,8.6,11.2
 2003/04/06, 4:30,9.4,64,8.6,11.2
 2003/04/06, 4:45,9.4,64,8.5,11.2
 2003/04/06, 5:00,9.3,63,8.5,11.2
 2003/04/06, 5:15,9.3,63,8.5,11.1
 2003/04/06, 5:30,9.2,64,8.4,11.1
 2003/04/06, 5:45,9.2,64,8.4,11.1
 2003/04/06, 6:00,9.2,64,8.4,11
 2003/04/06, 6:15,9.1,64,8.4,11
 2003/04/06, 6:30,9.1,64,8.5,11
 2003/04/06, 6:45,9.1,64.5,8.8,10.9
 2003/04/06, 7:00,9.1,65,9.1,10.9
 2003/04/06, 7:15,9.1,65,9.4,10.9
 2003/04/06, 7:30,9.3,64,9.6,10.9
 2003/04/06, 7:45,9.4,63.5,10,10.8
 2003/04/06, 8:00,9.7,62,10.7,10.8
 2003/04/06, 8:15,10,61.5,11.4,10.8
 2003/04/06, 8:30,10.3,60,11.8,10.7
 2003/04/06, 8:45,10.6,59,11.8,10.7
 2003/04/06, 9:00,11,58,11.7,10.7
 2003/04/06, 9:15,11.2,57,11.6,10.7
 2003/04/06, 9:30,11.5,56,11.5,10.7
 2003/04/06, 9:45,11.7,56,11.6,10.6
 2003/04/06,10:00,12,56,11.4,10.6
 2003/04/06,10:15,12.1,55,11.3,10.6
 2003/04/06,10:30,12.3,55,11.4,10.6
 2003/04/06,10:45,12.4,55,11.4,10.6
 2003/04/06,11:00,12.4,55,11.4,10.6
 2003/04/06,11:15,12.6,54,11.5,10.6
 2003/04/06,11:30,12.7,54,11.5,10.6
 2003/04/06,11:45,12.8,54,11.6,10.6
 2003/04/06,12:00,12.9,54,11.6,10.6
 2003/04/06,12:15,12.9,54,11.8,10.6
 2003/04/06,12:30,13.1,53,11.8,10.6
 2003/04/06,12:45,13.2,53,11.9,10.6
 2003/04/06,13:00,13.3,53,12,10.6
 2003/04/06,13:15,13.4,52.5,12.1,10.6
 2003/04/06,13:30,13.5,52,12.2,10.6
 2003/04/06,13:45,13.6,52,12.2,10.7
 2003/04/06,14:00,13.7,52,12.4,10.7
 2003/04/06,14:15,13.7,52,12.4,10.7
 2003/04/06,14:30,13.8,52,12.5,10.7
 2003/04/06,14:45,13.9,51.5,12.6,10.7
 2003/04/06,15:00,14,52,12.7,10.7
 2003/04/06,15:15,14.1,51,12.8,10.7
 2003/04/06,15:30,14.2,51,12.8,10.8
 2003/04/06,15:45,14.1,51,12.9,10.8
 2003/04/06,16:00,14.1,52,12.9,10.8
 2003/04/06,16:15,14.1,51.5,13,10.8
 2003/04/06,16:30,14,52,12.9,10.8
 2003/04/06,16:45,13.9,52,12.9,10.9
 2003/04/06,17:00,13.9,52,12.9,10.9
 2003/04/06,17:15,13.8,52,12.9,10.9
 2003/04/06,17:30,13.7,51,13,10.9
 2003/04/06,17:45,13.6,50.5,12.8,11
 2003/04/06,18:00,13.5,50,12.7,11
 2003/04/06,18:15,13.4,50,12.6,11
 2003/04/06,18:30,13.3,50,12.5,11
 2003/04/06,18:45,13.2,51,12.4,11.1
 2003/04/06,19:00,13.2,52,12.3,11.1
 2003/04/06,19:15,13.3,53,12.4,11.4
 2003/04/06,19:30,13.7,59,12.2,11.8
 2003/04/06,19:45,14.2,67.5,12.1,11.8
 2003/04/06,20:00,14.9,66,11.8,11.8
 2003/04/06,20:15,15.4,61.5,11.7,11.8
 2003/04/06,20:30,16.1,58,11.6,11.8
 2003/04/06,20:45,16.4,57.5,11.4,11.8
 2003/04/06,21:00,16.6,56,11.4,11.8
 2003/04/06,21:15,15.9,58.5,11.4,11.8
 2003/04/06,21:30,18.2,46,11.2,11.8
 2003/04/06,21:45,20.9,39.5,11.1,11.8
 2003/04/06,22:00,22.7,40,11,11.8
 2003/04/06,22:15,23.3,39.5,10.9,11.8
 2003/04/06,22:30,23.7,39,10.9,11.8
 2003/04/06,22:45,24.1,38.5,10.9,11.8
 2003/04/06,23:00,24.5,39,10.8,11.9
 2003/04/06,23:15,21,48,10.6,11.9
 2003/04/06,23:30,18.5,55,10.6,11.9
 2003/04/06,23:45,17.7,56.5,10.5,11.9
 2003/04/07, 0:00,17.1,58,10.4,11.9
 2003/04/07, 0:15,16.8,58.5,10.2,11.9
 2003/04/07, 0:30,16.4,59,10.3,11.6
 2003/04/07, 0:45,15.8,58.5,10.2,11.8
 2003/04/07, 1:00,15.4,58,10.1,11.8
 2003/04/07, 1:15,15,59,10.1,11.8
 2003/04/07, 1:30,14.6,59,10,11.8
 2003/04/07, 1:45,14.4,59,10,11.8
 2003/04/07, 2:00,14.1,59,9.9,11.8
 2003/04/07, 2:15,13.9,60,9.8,11.8
 2003/04/07, 2:30,13.6,60,9.7,11.7
 2003/04/07, 2:45,13.4,60,9.7,11.7
 2003/04/07, 3:00,13.2,60,9.6,11.7
 2003/04/07, 3:15,13.1,60.5,9.5,11.7
 2003/04/07, 3:30,12.8,61,9.4,11.7
 2003/04/07, 3:45,12.6,61,9.3,11.7
 2003/04/07, 4:00,12.5,61,9.2,11.7
 2003/04/07, 4:15,12.4,61,9.1,11.6
 2003/04/07, 4:30,12.2,61,9.1,11.6
 2003/04/07, 4:45,12.1,61,9,11.6
 2003/04/07, 5:00,11.9,62,8.9,11.6
 2003/04/07, 5:15,11.8,62,8.8,11.6
 2003/04/07, 5:30,11.7,62,8.7,11.5
 2003/04/07, 5:45,11.6,62,8.6,11.5
 2003/04/07, 6:00,11.4,62,8.6,11.5
 2003/04/07, 6:15,11.4,62,8.8,11.5
 2003/04/07, 6:30,11.3,63,8.9,11.4
 2003/04/07, 6:45,17.1,46.5,9.2,10.6
 2003/04/07, 7:00,18.7,43,9.6,11.1
 2003/04/07, 7:15,18.3,42.5,9.6,11.4
 2003/04/07, 7:30,19.9,40,9.7,11.5
 2003/04/07, 7:45,18.4,44.5,10.6,11.5
 2003/04/07, 8:00,15.1,52,11.9,11.5
 2003/04/07, 8:15,14.6,53.5,13.2,11.5
 2003/04/07, 8:30,14.3,52,13.8,11.5
 2003/04/07, 8:45,14.2,54,13.9,11.4
 2003/04/07, 9:00,14.3,55,12.5,11.7
 2003/04/07, 9:15,14.4,57,12.6,11.7
 2003/04/07, 9:30,14.6,56,12.7,11.7
 2003/04/07, 9:45,14.8,56,12.6,11.8
 2003/04/07,10:00,15.1,59,12.7,11.9
 2003/04/07,10:15,15.4,58,12.8,11.8
 2003/04/07,10:30,15.5,59,12.6,11.8
 2003/04/07,10:45,15.8,60,12.7,11.8
 2003/04/07,11:00,16.1,59,12.6,11.8
 2003/04/07,11:15,17,57,12.7,11.8
 2003/04/07,11:30,17.6,54,12.8,11.8
 2003/04/07,11:45,18.3,53,12.9,11.8
 2003/04/07,12:00,18.6,53,13,11.8
 2003/04/07,12:15,18.9,49.5,13.5,12
 2003/04/07,12:30,18.9,46,13.8,12
 2003/04/07,12:45,18.9,45,14,12
 2003/04/07,13:00,19.4,45,13.8,12
 2003/04/07,13:15,19.8,46,13.9,12
 2003/04/07,13:30,19.8,47,14.1,12
 2003/04/07,13:45,20,46,14.1,11.9
 2003/04/07,14:00,20.1,46,14.3,11.9
 2003/04/07,14:15,20.3,46.5,14.4,11.9
 2003/04/07,14:30,20.6,46,14.5,12
 2003/04/07,14:45,20.5,44.5,14.8,11.6
 2003/04/07,15:00,20.7,45,14.8,12
 2003/04/07,15:15,20.4,45.5,14.9,12
 2003/04/07,15:30,20.1,46,15,12
 2003/04/07,15:45,19.5,48.5,15.1,12.1
 2003/04/07,16:00,19.3,49,15.2,12.1
 2003/04/07,16:15,19.1,49.5,15.3,12.1
 2003/04/07,16:30,19.1,49,15.5,12.1
 2003/04/07,16:45,18.6,47.5,16.2,12.1
 2003/04/07,17:00,18.4,47,16.2,12.1
 2003/04/07,17:15,18.1,48,16.2,12.2
 2003/04/07,17:30,18,48,16.3,12.2
 2003/04/07,17:45,18,49,16.2,12.2
 2003/04/07,18:00,17.9,50,16.2,12.3
 2003/04/07,18:15,17.9,50.5,16.2,12.4